Location: Unspecified
(51.0950°N, 12.9690°E)
Time: 14:15:50
(UTC+00:00)

EO-79 - Pass Details

Date: 24 April 2024
Orbit: 562 x 575 km, 98.0° (Epoch: 25 May)

Event Time Altitude Azimuth Distance (km) Brightness Sun altitude
Rises 02:43:11 0° 11° (NNE) 2,801 ? -10.5°
Maximum altitude 02:49:26 64° 288° (WNW) 644 ? -9.7°
Drops below altitude 10° 02:53:29 10° 207° (SSW) 1,888 ? -9.2°
Enters shadow 02:53:43 - 207° (SSW) 1,985 ? -9.2°
